Location: Roc des P�zouls
(43.9667°N, 3.5500°E)
Time: 02:34:33
(UTC+00:00)

IDEFIX/ARIANE 42P - Pass Details

Date: 14 November 2019
Orbit: 784 x 804 km, 98.3° (Epoch: 10 December)

Event Time Altitude Azimuth Distance (km) Brightness Sun altitude
Rises 03:50:21 0° 10° (N) 3,291 5.9 -30.3°
Reaches altitude 10° 03:52:42 10° 7° (N) 2,356 5.1 -29.9°
Enters shadow 03:54:04 19° 4° (N) 1,826 4.5 -29.6°
